Wind_Speed
28 28 28 29 29 29 28 27 28 28 29 30 30 31 31 32 32 35 34 32 29 29 29 30 30 31 31 31 31 30 30 29 29 28 27 26 25 24 23 22 21 20 19 18 17 15 13 13 12
31 31 32 32 32 32 31 31 32 32 32 33 33 33 34 34 36 38 37 34 32 31 31 32 32 32 33 33 33 32 32 31 31 30 29 29 28 26 25 24 23 22 21 20 18 17 15 14 14
33 34 35 35 35 34 34 35 36 36 36 36 36 36 37 37 38 40 39 37 35 34 33 34 34 34 35 35 35 34 34 33 33 32 31 31 30 29 27 26 25 24 23 21 20 19 18 16 15
35 36 38 39 38 37 38 38 39 40 41 41 40 40 40 40 41 42 42 40 38 38 37 36 36 36 36 36 37 37 36 35 35 34 33 33 32 31 29 28 27 26 24 23 22 21 20 18 17
38 39 41 41 40 40 41 42 43 44 44 45 45 44 44 44 45 45 45 43 42 41 40 40 39 39 39 39 38 39 38 37 36 36 36 35 34 33 31 30 29 28 26 25 24 22 21 20 19
40 41 43 44 43 43 44 45 46 47 48 48 48 49 47 47 48 48 48 47 46 44 43 43 42 42 42 41 41 41 40 39 38 38 37 37 35 35 34 32 31 29 28 27 25 24 23 22 21
43 44 45 45 46 47 48 49 50 51 52 52 52 52 51 50 52 52 51 51 50 48 46 46 45 45 44 44 43 43 42 41 41 40 39 38 37 37 35 34 33 31 29 28 27 26 25 24 23
44 47 48 48 49 50 51 52 53 54 55 55 55 55 54 53 55 55 55 54 53 51 50 49 48 47 47 46 46 45 45 44 43 42 41 40 40 39 37 36 35 33 31 29 28 27 26 25 24
45 47 48 49 51 52 53 55 55 56 56 56 57 57 58 57 59 59 58 57 57 55 54 52 51 50 50 49 48 48 47 46 45 44 43 42 41 40 39 37 36 34 33 31 30 29 28 26 25
46 47 49 50 53 54 55 57 57 58 58 58 58 59 61 61 61 61 61 60 59 58 57 56 54 53 52 52 51 51 50 49 48 46 45 44 43 42 40 39 37 36 34 33 31 30 29 27 27
46 47 49 51 54 56 57 57 57 59 60 60 61 60 61 62 63 63 63 62 61 60 60 59 57 56 55 55 54 53 52 51 50 49 47 45 44 43 42 40 39 38 36 34 33 32 30 29 28
46 48 50 52 53 56 57 58 57 58 59 59 59 61 62 63 64 64 64 63 63 62 62 61 59 58 57 57 56 55 55 54 52 50 49 47 46 44 43 42 40 39 38 36 34 33 32 31 29
46 48 50 52 53 54 55 56 57 56 56 57 58 60 61 61 62 63 63 64 63 64 63 62 61 60 59 59 58 57 56 56 54 51 49 48 48 46 45 43 42 40 39 38 36 34 33 32 31
46 47 49 50 52 52 54 53 52 52 52 53 54 55 56 57 58 60 61 62 62 63 63 63 63 61 61 61 60 59 58 57 56 54 52 50 49 48 46 45 44 42 40 39 38 36 34 33 32
47 47 47 48 50 51 51 49 46 48 48 49 50 51 53 54 54 55 57 59 60 61 62 64 63 63 62 62 61 60 59 59 58 56 54 52 50 49 48 46 45 44 42 40 39 37 36 34 33
46 46 46 45 46 46 46 45 43 44 46 46 47 47 49 51 51 52 54 55 56 57 60 62 63 63 63 63 62 61 61 60 59 57 55 54 52 51 50 47 46 45 43 41 40 38 36 35 33
45 45 45 43 43 42 42 43 40 40 42 42 42 42 45 47 48 50 52 52 52 54 57 59 61 62 62 63 63 62 62 61 60 59 57 55 54 52 51 50 47 46 44 42 41 39 37 36 34
46 46 43 41 40 39 38 38 37 38 39 40 40 39 41 43 43 46 49 50 51 52 55 56 58 60 62 62 62 62 63 63 61 61 58 57 55 53 52 51 49 46 45 44 42 40 38 37 35
45 43 41 39 38 37 36 35 34 35 37 39 38 37 36 38 40 41 44 47 49 51 53 55 57 58 61 62 62 62 63 64 62 62 60 57 55 54 53 52 50 47 45 44 42 41 39 38 36
43 42 40 37 34 35 34 33 32 33 35 35 35 35 35 35 36 37 40 43 45 48 51 53 55 58 60 61 61 61 61 62 61 62 61 59 56 54 52 52 49 47 46 44 42 41 40 38 37
41 41 40 38 35 33 34 32 31 32 32 32 32 32 32 33 33 33 37 41 43 45 49 52 52 55 59 61 62 61 62 63 62 61 61 59 57 55 53 52 50 48 47 46 43 41 40 39 38
42 40 38 36 34 32 33 35 31 32 30 30 29 28 28 30 31 31 34 37 40 44 47 50 52 53 57 59 61 63 62 63 62 62 61 61 58 55 52 51 51 49 47 46 45 43 41 40 38
42 40 37 34 32 32 31 34 32 33 30 29 27 26 25 26 27 29 31 34 38 42 46 48 49 52 56 59 59 61 61 61 63 63 61 59 59 56 52 51 50 48 46 46 44 43 41 40 39
41 40 37 34 33 31 31 33 33 32 30 28 25 24 23 24 25 25 27 32 35 39 44 46 48 51 54 57 59 59 59 60 61 61 60 59 57 56 53 51 49 47 46 45 43 42 42 41 39
41 41 39 36 34 31 31 33 32 30 29 28 24 23 24 24 25 24 26 29 33 36 41 44 47 50 52 54 57 58 58 58 60 60 59 59 58 56 53 50 49 47 46 45 43 42 42 40 38
41 40 38 38 37 33 30 31 30 29 29 28 25 23 23 24 25 25 26 28 31 34 40 43 46 49 51 52 54 56 57 58 60 61 59 59 58 56 55 52 49 47 46 44 43 42 41 39 38
40 38 38 38 38 36 33 32 30 29 27 26 25 24 24 23 24 26 27 27 31 34 37 42 46 47 48 50 52 55 56 56 57 58 58 58 57 57 53 51 49 47 45 44 43 42 41 39 39
39 38 37 37 38 38 35 33 30 28 27 26 25 25 25 24 24 24 27 28 28 33 37 41 44 47 47 48 49 51 52 56 56 55 58 58 57 56 53 49 48 47 45 44 43 42 41 39 38
39 38 38 38 37 38 38 34 31 30 28 26 25 24 25 24 23 24 25 27 29 31 35 40 42 46 49 49 49 48 50 54 55 54 55 55 55 55 53 50 47 46 44 44 43 42 40 39 38
39 39 38 38 37 37 38 36 31 30 29 28 26 25 24 24 23 25 25 26 29 32 35 39 40 44 48 50 49 47 48 50 53 54 53 54 54 53 52 50 48 46 44 44 42 41 40 38 37
Wind_Direction
278 277 276 274 274 273 276 278 277 274 272 269 267 266 264 263 261 259 259 259 256 251 248 246 245 243 242 241 240 239 237 237 237 237 236 237 237 238 239 240 241 243 245 247 249 252 256 260 265
277 275 274 273 274 275 277 277 275 274 272 270 267 265 263 262 261 261 260 259 256 252 248 246 245 243 242 241 241 239 239 238 238 238 238 238 239 238 239 240 241 243 245 247 249 251 254 259 263
276 275 274 274 274 277 279 278 276 274 272 270 267 265 263 262 260 261 261 260 257 253 249 246 244 243 242 242 241 240 239 239 238 238 239 239 239 239 239 241 241 243 245 247 248 250 253 257 261
276 275 274 274 276 278 278 277 275 273 272 270 268 265 263 261 260 260 261 260 257 254 251 247 245 243 242 241 240 240 240 240 239 239 239 239 239 240 240 241 241 242 244 246 247 249 252 256 259
276 275 275 275 276 277 277 276 274 273 271 270 268 266 264 261 260 259 258 257 255 253 251 249 245 243 242 241 240 240 240 240 240 240 240 240 239 240 240 240 241 242 243 245 246 248 251 254 258
278 277 277 278 277 276 276 274 273 271 270 270 268 266 265 263 260 258 257 256 254 252 250 248 246 244 242 240 240 239 240 240 240 239 239 240 239 239 239 240 240 241 243 245 246 247 250 253 256
281 279 279 279 278 277 276 274 273 272 270 269 268 267 264 262 260 258 257 256 254 252 250 248 247 245 242 240 239 239 239 239 239 239 239 239 239 239 239 240 240 241 242 244 245 247 250 252 255
283 282 281 280 279 277 276 274 273 272 271 270 268 267 265 263 260 258 256 255 254 251 249 247 246 244 243 240 239 238 238 238 239 239 239 238 238 239 240 239 240 241 242 244 245 247 249 251 254
285 284 283 282 281 279 277 275 273 272 271 270 269 267 265 262 260 258 255 254 253 250 248 246 244 243 241 240 238 238 238 237 237 238 238 238 238 239 239 239 240 241 242 243 245 246 249 251 254
287 286 286 284 282 281 278 276 274 272 272 270 268 266 264 262 260 258 256 253 251 249 247 245 243 241 240 238 237 237 237 237 237 237 237 237 238 238 239 239 239 241 242 243 245 246 248 250 253
289 288 287 286 284 283 280 278 276 275 272 270 268 265 262 260 258 256 255 252 250 248 246 244 242 240 238 237 236 235 236 236 236 236 236 236 237 238 238 238 239 240 241 243 245 246 247 250 253
293 292 291 289 287 285 284 281 277 276 274 271 268 264 262 260 258 256 253 251 248 245 244 242 240 239 237 236 235 234 234 234 235 235 235 235 236 238 237 237 238 239 241 242 244 245 247 250 253
299 297 295 292 290 288 286 283 279 277 275 272 267 264 262 260 257 255 251 249 247 245 242 240 239 237 236 234 233 233 233 233 233 233 234 234 235 236 236 236 237 239 240 242 243 245 246 249 252
305 302 299 297 294 292 289 285 280 278 276 272 269 266 263 261 257 254 250 246 245 244 242 239 237 235 234 233 232 231 231 231 231 231 231 233 234 235 235 236 237 237 239 241 243 245 247 249 252
309 307 304 300 298 295 292 287 281 279 277 274 271 268 265 261 257 253 250 245 243 242 240 237 235 233 232 231 230 229 229 229 229 229 230 231 232 233 233 235 236 237 238 239 242 245 247 250 251
312 310 308 304 301 296 293 291 286 282 281 278 273 269 265 261 257 251 247 244 241 240 238 235 232 231 229 229 229 228 228 227 227 227 228 229 231 233 234 234 236 236 237 239 241 244 247 249 251
317 315 313 308 304 298 294 294 290 287 284 280 275 270 266 261 257 251 245 242 239 237 236 233 231 229 227 226 227 226 226 225 225 226 227 228 230 232 233 234 234 236 236 238 240 243 245 247 250
321 319 316 311 308 302 299 297 294 290 286 283 279 274 268 261 257 251 245 241 238 235 234 231 229 227 225 223 224 224 225 224 224 224 226 227 228 232 233 234 233 234 236 238 240 242 245 247 249
323 321 319 317 312 305 303 301 299 296 293 287 280 275 270 263 257 250 245 241 237 233 232 230 228 225 223 221 221 221 223 223 223 223 225 225 227 229 232 233 233 234 236 238 239 242 245 247 249
324 321 321 320 313 310 308 306 304 303 301 295 285 278 269 263 255 250 244 240 237 232 229 227 226 224 222 220 220 220 221 221 221 222 223 225 226 228 231 232 232 234 235 237 239 241 244 246 249
325 322 321 320 317 312 309 310 312 309 304 300 290 279 269 262 256 251 245 239 236 230 227 225 223 223 221 219 218 218 217 218 219 220 221 223 224 226 229 230 231 233 235 237 239 241 244 247 250
327 324 323 320 318 316 314 314 317 314 308 304 294 283 271 261 258 252 246 239 235 230 226 224 223 222 220 218 218 218 217 218 219 220 221 222 223 225 228 230 230 232 234 237 239 241 244 247 250
327 326 323 321 318 316 316 316 319 318 312 307 297 286 271 260 258 252 244 237 233 229 225 222 222 220 219 218 218 219 218 217 217 219 221 221 223 224 227 229 230 232 234 237 239 241 243 246 249
326 325 322 319 317 318 319 318 319 321 316 309 300 285 270 262 257 251 241 236 232 227 223 221 221 219 217 218 218 218 218 217 217 218 220 221 221 223 226 229 230 232 234 236 239 242 244 247 250
326 326 325 322 319 318 318 317 319 318 316 310 302 289 276 266 258 251 242 237 232 228 222 219 219 217 215 216 217 217 218 218 217 218 220 221 221 224 226 228 229 231 233 235 238 241 244 246 250
328 327 326 322 320 317 317 317 317 316 314 309 300 290 280 268 256 248 243 238 231 227 223 219 218 216 214 215 216 216 219 219 217 218 221 222 223 224 226 228 228 229 232 234 237 241 244 246 249
327 326 324 320 318 315 316 315 314 315 313 307 297 286 278 269 256 248 243 238 233 228 225 221 217 214 215 215 216 217 218 219 219 219 220 222 223 224 226 228 228 230 231 233 237 240 243 245 247
325 324 323 321 318 315 313 313 313 312 310 305 295 285 278 271 258 250 242 237 234 230 225 220 216 215 214 215 216 216 217 218 219 219 220 221 223 225 226 228 230 231 232 234 236 239 242 245 247
325 323 321 318 316 312 310 311 311 308 305 301 295 289 280 273 261 252 245 237 234 230 222 218 216 215 214 216 216 216 217 218 219 220 220 222 224 225 225 228 231 232 233 235 237 239 242 244 247
325 323 320 318 315 310 306 309 308 304 301 297 290 287 281 273 263 253 246 239 234 230 223 218 218 216 214 215 215 215 217 219 219 220 221 222 224 225 226 228 230 232 234 235 237 239 241 244 246
Height
5810 5809 5810 5810 5810 5811 5812 5814 5814 5815 5816 5816 5817 5818 5820 5822 5823 5824 5824 5826 5829 5832 5834 5835 5837 5839 5841 5843 5845 5848 5850 5852 5854 5856 5857 5859 5861 5862 5864 5865 5867 5868 5869 5870 5871 5872 5873 5873 5873
5804 5803 5803 5803 5803 5804 5806 5808 5807 5808 5809 5810 5811 5812 5813 5815 5815 5815 5816 5820 5823 5826 5828 5830 5831 5834 5836 5838 5841 5843 5845 5847 5849 5851 5853 5855 5857 5859 5861 5862 5864 5865 5867 5868 5869 5870 5871 5871 5871
5797 5796 5796 5796 5797 5798 5799 5800 5799 5800 5801 5801 5803 5804 5806 5808 5808 5807 5809 5813 5817 5819 5822 5824 5826 5828 5830 5833 5835 5838 5840 5842 5845 5847 5849 5851 5853 5855 5857 5859 5860 5862 5864 5865 5866 5867 5868 5869 5869
5789 5788 5788 5789 5789 5791 5791 5792 5791 5791 5792 5792 5794 5796 5798 5799 5800 5800 5802 5805 5809 5811 5814 5817 5819 5821 5824 5826 5829 5832 5835 5837 5839 5842 5844 5846 5848 5851 5853 5855 5857 5859 5860 5862 5863 5865 5865 5866 5867
5780 5779 5779 5779 5781 5782 5781 5782 5781 5781 5782 5782 5784 5786 5788 5789 5790 5791 5793 5796 5799 5803 5806 5808 5811 5814 5817 5820 5823 5825 5828 5831 5834 5836 5839 5841 5844 5846 5848 5850 5852 5855 5857 5858 5860 5861 5862 5863 5864
5771 5770 5769 5769 5771 5772 5771 5771 5770 5770 5771 5771 5772 5774 5777 5778 5779 5780 5783 5786 5790 5793 5797 5800 5803 5806 5809 5812 5815 5818 5821 5825 5828 5830 5833 5836 5838 5841 5843 5846 5848 5850 5852 5854 5856 5858 5859 5860 5861
5761 5759 5758 5758 5758 5760 5760 5758 5757 5757 5758 5759 5760 5761 5764 5766 5766 5768 5771 5774 5779 5783 5787 5790 5794 5797 5800 5804 5808 5811 5814 5818 5821 5824 5827 5830 5832 5835 5838 5841 5843 5846 5848 5850 5852 5854 5855 5856 5857
5749 5748 5746 5746 5745 5746 5746 5744 5744 5744 5744 5745 5746 5747 5750 5752 5753 5756 5759 5762 5766 5771 5776 5780 5784 5788 5791 5795 5799 5803 5806 5810 5813 5817 5820 5823 5826 5829 5832 5835 5838 5841 5843 5845 5848 5849 5851 5852 5854
5737 5736 5734 5733 5731 5731 5731 5729 5729 5728 5728 5730 5730 5731 5733 5735 5737 5741 5745 5749 5753 5758 5763 5768 5772 5777 5781 5785 5790 5794 5798 5802 5805 5809 5812 5816 5819 5823 5826 5830 5833 5836 5838 5841 5843 5845 5847 5848 5850
5725 5723 5722 5720 5717 5715 5714 5713 5712 5712 5712 5713 5714 5715 5715 5717 5720 5725 5730 5735 5739 5744 5749 5755 5760 5765 5770 5775 5779 5784 5789 5793 5797 5801 5805 5809 5813 5816 5820 5824 5827 5830 5833 5836 5838 5840 5842 5844 5846
5713 5710 5709 5705 5702 5698 5697 5696 5695 5692 5694 5694 5695 5697 5697 5699 5703 5706 5712 5718 5724 5729 5735 5741 5746 5752 5757 5763 5768 5774 5779 5783 5788 5793 5797 5801 5805 5809 5814 5817 5821 5824 5827 5830 5833 5835 5838 5839 5841
5700 5697 5693 5689 5685 5682 5679 5677 5677 5675 5675 5674 5674 5675 5677 5680 5684 5688 5693 5699 5706 5712 5719 5726 5732 5738 5744 5750 5756 5762 5768 5773 5779 5784 5789 5793 5798 5802 5807 5811 5815 5818 5822 5824 5827 5830 5832 5834 5836
5687 5683 5678 5673 5669 5664 5661 5659 5657 5657 5656 5654 5654 5655 5657 5660 5664 5669 5674 5681 5687 5694 5701 5709 5716 5723 5730 5737 5744 5750 5756 5763 5769 5775 5781 5785 5790 5795 5799 5803 5808 5812 5815 5818 5822 5824 5827 5829 5831
5675 5670 5664 5658 5653 5648 5643 5642 5638 5639 5637 5637 5637 5637 5639 5642 5645 5649 5655 5662 5669 5676 5684 5692 5700 5708 5715 5723 5730 5737 5744 5751 5758 5765 5771 5777 5782 5786 5791 5795 5800 5805 5808 5812 5815 5818 5821 5823 5825
5663 5658 5652 5645 5639 5633 5627 5627 5624 5622 5620 5620 5621 5621 5622 5625 5628 5632 5637 5643 5651 5659 5666 5674 5683 5692 5700 5708 5716 5724 5732 5740 5747 5755 5761 5767 5773 5778 5783 5788 5793 5797 5801 5805 5809 5812 5815 5818 5820
5652 5645 5640 5635 5627 5621 5616 5614 5613 5608 5606 5606 5606 5606 5607 5610 5613 5617 5621 5627 5634 5642 5649 5658 5666 5676 5684 5693 5702 5711 5719 5728 5736 5744 5751 5758 5764 5769 5775 5780 5784 5789 5794 5798 5802 5805 5809 5812 5814
5642 5635 5628 5624 5618 5611 5605 5602 5602 5598 5594 5593 5593 5593 5594 5596 5599 5602 5607 5613 5619 5627 5634 5642 5651 5661 5669 5679 5688 5698 5707 5715 5724 5732 5740 5748 5755 5760 5766 5772 5776 5781 5786 5791 5795 5799 5802 5805 5808
5633 5625 5619 5612 5607 5601 5597 5593 5592 5588 5584 5583 5582 5582 5582 5583 5585 5589 5594 5600 5606 5613 5620 5628 5637 5646 5655 5665 5674 5684 5693 5703 5712 5721 5729 5737 5744 5751 5757 5763 5768 5774 5779 5783 5788 5792 5795 5798 5801
5623 5616 5610 5605 5598 5593 5589 5585 5583 5580 5576 5573 5572 5571 5571 5572 5574 5577 5582 5587 5593 5600 5607 5615 5623 5632 5641 5651 5661 5671 5680 5691 5701 5710 5718 5726 5734 5741 5748 5754 5760 5766 5771 5775 5780 5784 5788 5791 5794
5616 5609 5603 5598 5592 5586 5582 5580 5577 5572 5567 5564 5562 5561 5560 5562 5564 5567 5571 5576 5581 5588 5595 5603 5611 5620 5629 5639 5649 5659 5669 5679 5689 5698 5707 5716 5725 5732 5738 5745 5751 5757 5763 5767 5772 5777 5781 5784 5787
5610 5602 5595 5590 5586 5582 5576 5575 5571 5566 5561 5557 5554 5553 5553 5554 5556 5559 5562 5567 5571 5577 5584 5591 5600 5607 5617 5627 5637 5647 5657 5667 5677 5687 5696 5706 5715 5723 5729 5736 5743 5749 5755 5760 5765 5769 5774 5777 5780
5604 5597 5590 5583 5578 5575 5571 5565 5567 5560 5555 5550 5547 5546 5546 5547 5548 5550 5553 5557 5562 5567 5574 5582 5590 5597 5606 5616 5626 5637 5647 5657 5669 5678 5687 5696 5705 5713 5720 5727 5734 5740 5746 5752 5757 5762 5766 5770 5773
5598 5591 5585 5579 5573 5570 5567 5560 5560 5554 5549 5545 5542 5540 5540 5541 5542 5543 5546 5549 5553 5559 5565 5573 5580 5588 5597 5607 5616 5627 5636 5648 5659 5668 5677 5687 5696 5704 5711 5718 5726 5732 5738 5744 5749 5754 5758 5762 5765
5592 5586 5581 5575 5570 5566 5562 5555 5553 5548 5544 5540 5538 5536 5535 5535 5536 5537 5539 5542 5546 5551 5557 5564 5571 5579 5588 5597 5607 5618 5628 5638 5648 5658 5668 5677 5686 5694 5703 5710 5717 5724 5730 5736 5741 5746 5750 5754 5758
5587 5580 5573 5568 5564 5561 5557 5551 5549 5544 5540 5536 5533 5531 5530 5530 5530 5531 5534 5537 5540 5545 5550 5556 5563 5572 5580 5589 5599 5609 5618 5628 5638 5649 5659 5668 5677 5685 5694 5702 5709 5716 5722 5727 5733 5738 5742 5746 5750
5581 5574 5568 5562 5557 5555 5552 5548 5546 5541 5536 5532 5529 5527 5526 5526 5525 5526 5528 5531 5534 5538 5543 5549 5556 5564 5572 5581 5591 5600 5610 5619 5629 5640 5650 5660 5669 5678 5685 5693 5700 5707 5713 5719 5725 5730 5734 5739 5742
5576 5570 5564 5557 5551 5547 5546 5543 5540 5536 5532 5529 5525 5523 5521 5521 5521 5522 5524 5525 5528 5532 5537 5542 5549 5557 5566 5574 5583 5592 5602 5611 5621 5632 5641 5651 5660 5669 5676 5685 5692 5699 5705 5711 5717 5722 5726 5731 5735
5572 5566 5560 5553 5546 5541 5539 5537 5535 5531 5527 5525 5522 5519 5517 5516 5516 5517 5519 5520 5523 5526 5531 5537 5543 5551 5559 5567 5576 5585 5594 5604 5613 5623 5633 5642 5651 5660 5669 5676 5684 5691 5697 5703 5709 5714 5718 5723 5727
5567 5561 5554 5548 5542 5536 5531 5534 5531 5526 5522 5520 5517 5514 5512 5511 5511 5512 5514 5516 5518 5521 5525 5531 5537 5545 5553 5561 5570 5578 5587 5596 5605 5615 5625 5634 5643 5652 5660 5668 5676 5683 5689 5695 5700 5706 5711 5715 5719
5561 5555 5549 5543 5538 5531 5525 5527 5525 5520 5517 5514 5511 5509 5508 5507 5507 5507 5509 5511 5513 5516 5520 5525 5532 5539 5547 5554 5562 5570 5579 5588 5597 5607 5616 5626 5634 5642 5651 5660 5668 5675 5681 5686 5692 5698 5703 5707 5711